Orbital Elements at Epoch 2459000.5 (2020-May-31.0) TDB
Reference: JPL 23 (heliocentric ecliptic J2000)
Element | Value | Uncertainty (1-sigma) | Units |
e | .1138809809638864 | 5.4997e-08 | |
a | 2.514207027985572 | 1.3858e-08 | au |
q | 2.227886665292278 | 1.385e-07 | au |
i | 7.864672860234779 | 4.859e-06 | deg |
node | 111.5114867749527 | 3.8109e-05 | deg |
peri | 254.2059564786583 | 4.3464e-05 | deg |
M | 49.85165356914447 | 1.8933e-05 | deg |
tp | 2458798.859832972123 (2019-Nov-11.35983297) | 7.683e-05 | TDB |
period | 1456.129434690715 3.99 | 1.2039e-05 3.296e-08 | d yr |
n | .2472307690672188 | 2.0441e-09 | deg/d |
Q | 2.800527390678866 | 1.5436e-08 | au |
|
| | Orbit Determination Parameters
Additional Information
|